Bowie, TX

6:30 AM CDT on April 26, 2018 (GMT -0500)
Bowie

Weather History for K0F2 - October, 2012

Change the Weather History Date:

Thursday, October 4, 2012

  Actual Average (KSPS) Record (KSPS)
Temperature  
Mean Temperature 68 °F -  
Max Temperature 77 °F 78 °F 97 °F (2000)
Min Temperature 60 °F 55 °F 42 °F (1975)
Cooling Degree Days 4    
Growing Degree Days 18 (Base 50)    
Moisture  
Dew Point 58 °F    
Average Humidity 73    
Maximum Humidity 83    
Minimum Humidity 64    
Precipitation  
Precipitation 0.00 in - - ()
Sea Level Pressure  
Sea Level Pressure 30.08 in    
Wind  
Wind Speed 6 mph (ESE)    
Max Wind Speed 14 mph    
Max Gust Speed 16 mph    
Visibility 10 miles    
Events      
Averages and records for this station are not official NWS values.
T = Trace of Precipitation, MM = Missing Value Source: NWS Daily Summary

Daily Weather History Graph

Daily Weather History Graph

Search for Another Location

Airport or City:

Astronomy

Oct. 04, 2012 Rise Set
Actual Time 7:28 AM CDT 7:10 PM CDT
Civil Twilight 7:03 AM CDT 7:35 PM CDT
Nautical Twilight 6:34 AM CDT 8:04 PM CDT
Astronomical Twilight 6:05 AM CDT 8:33 PM CDT
Moon 10:00 PM CDT (10/4) 11:33 AM CDT (10/4)
Length of Visible Light 12h 32m
Length of Day
11h 42m
Waning Gibbous, 82% of the Moon is Illuminated
Oct 4
Waning Gibbous
Oct 8
Last Quarter
Oct 15
New
Oct 21
First Quarter
Oct 29
Full

Hourly Weather History & Observations

Time (CDT) Temp. Dew Point Humidity Pressure Visibility Wind Dir Wind Speed Gust Speed Precip Events Conditions
12:15 AM 64.4 °F 51.8 °F 64% 30.00 in 10.0 mi ESE 5.8 mph - N/A   Clear
12:35 AM 62.6 °F 51.8 °F 68% 30.01 in 10.0 mi East 3.5 mph - N/A   Clear
12:55 AM 62.6 °F 51.8 °F 68% 30.01 in 10.0 mi ESE 5.8 mph - N/A   Clear
1:15 AM 62.6 °F 51.8 °F 68% 30.01 in 10.0 mi ESE 5.8 mph - N/A   Clear
1:35 AM 62.6 °F 51.8 °F 68% 30.01 in 10.0 mi ESE 6.9 mph - N/A   Clear
1:55 AM 62.6 °F 51.8 °F 68% 30.02 in 10.0 mi ESE 5.8 mph - N/A   Clear
2:15 AM 62.6 °F 51.8 °F 68% 30.02 in 10.0 mi ESE 4.6 mph - N/A   Clear
2:35 AM 62.6 °F 51.8 °F 68% 30.02 in 10.0 mi ESE 4.6 mph - N/A   Clear
2:55 AM 60.8 °F 51.8 °F 72% 30.02 in 10.0 mi ESE 3.5 mph - N/A   Clear
3:15 AM 60.8 °F 51.8 °F 72% 30.02 in 10.0 mi East 3.5 mph - N/A   Clear
3:35 AM 60.8 °F 51.8 °F 72% 30.02 in 10.0 mi ESE 4.6 mph - N/A   Clear
3:55 AM 60.8 °F 51.8 °F 72% 30.02 in 10.0 mi ESE 4.6 mph - N/A   Clear
4:15 AM 60.8 °F 51.8 °F 72% 30.02 in 10.0 mi ESE 4.6 mph - N/A   Clear
4:35 AM 60.8 °F 53.6 °F 77% 30.02 in 10.0 mi ESE 4.6 mph - N/A   Clear
4:55 AM 60.8 °F 53.6 °F 77% 30.02 in 10.0 mi ESE 6.9 mph - N/A   Clear
5:15 AM 62.6 °F 53.6 °F 72% 30.02 in 10.0 mi ESE 5.8 mph - N/A   Clear
5:35 AM 62.6 °F 55.4 °F 77% 30.03 in 10.0 mi ESE 5.8 mph - N/A   Clear
5:55 AM 62.6 °F 55.4 °F 77% 30.04 in 10.0 mi ESE 5.8 mph - N/A   Clear
6:15 AM 62.6 °F 55.4 °F 77% 30.04 in 10.0 mi SE 8.1 mph - N/A   Clear
6:35 AM 62.6 °F 57.2 °F 82% 30.05 in 10.0 mi SE 9.2 mph - N/A   Clear
6:55 AM 64.4 °F 57.2 °F 77% 30.05 in 10.0 mi SE 9.2 mph - N/A   Clear
7:15 AM 64.4 °F 59.0 °F 83% 30.05 in 10.0 mi ESE 5.8 mph - N/A   Clear
7:35 AM 62.6 °F 57.2 °F 82% 30.05 in 10.0 mi ESE 8.1 mph - N/A   Clear
7:55 AM 62.6 °F 57.2 °F 82% 30.06 in 10.0 mi East 4.6 mph - N/A   Clear
8:15 AM 62.6 °F 55.4 °F 77% 30.06 in 10.0 mi ESE 8.1 mph - N/A   Clear
8:35 AM 62.6 °F 55.4 °F 77% 30.07 in 10.0 mi ESE 9.2 mph - N/A   Clear
8:55 AM 64.4 °F 57.2 °F 77% 30.08 in 10.0 mi ESE 6.9 mph - N/A   Clear
9:15 AM 64.4 °F 57.2 °F 77% 30.09 in 10.0 mi ESE 5.8 mph - N/A   Clear
9:35 AM 68.0 °F 59.0 °F 73% 30.11 in 10.0 mi ESE 5.8 mph - N/A   Clear
9:55 AM 69.8 °F 59.0 °F 68% 30.11 in 10.0 mi ESE 5.8 mph - N/A   Clear
10:15 AM 71.6 °F 60.8 °F 69% 30.11 in 10.0 mi SE 11.5 mph 16.1 mph N/A   Mostly Cloudy
10:35 AM 71.6 °F 62.6 °F 73% 30.11 in 10.0 mi SE 10.4 mph - N/A   Overcast
10:55 AM 71.6 °F 62.6 °F 73% 30.12 in 10.0 mi SSE 11.5 mph - N/A   Overcast
11:15 AM 71.6 °F 62.6 °F 73% 30.13 in 10.0 mi SE 6.9 mph - N/A   Overcast
11:35 AM 71.6 °F 62.6 °F 73% 30.13 in 10.0 mi SE 6.9 mph - N/A   Overcast
11:55 AM 71.6 °F 62.6 °F 73% 30.13 in 10.0 mi ESE 6.9 mph - N/A   Overcast
12:15 PM 71.6 °F 62.6 °F 73% 30.13 in 10.0 mi ESE 5.8 mph - N/A   Overcast
12:35 PM 73.4 °F 64.4 °F 73% 30.13 in 10.0 mi ESE 5.8 mph - N/A   Overcast
12:55 PM 73.4 °F 62.6 °F 69% 30.12 in 10.0 mi ESE 6.9 mph - N/A   Overcast
1:35 PM 75.2 °F 64.4 °F 69% 30.11 in 10.0 mi SE 8.1 mph - N/A   Overcast
1:55 PM 73.4 °F 64.4 °F 73% 30.10 in 10.0 mi ESE 5.8 mph - N/A   Overcast
2:15 PM 73.4 °F 64.4 °F 73% 30.10 in 10.0 mi SSE 6.9 mph - N/A   Overcast
2:35 PM 77.0 °F 64.4 °F 65% 30.09 in 10.0 mi SSE 8.1 mph - N/A   Overcast
2:55 PM 75.2 °F 64.4 °F 69% 30.09 in 10.0 mi SE 5.8 mph - N/A   Overcast
3:15 PM 77.0 °F 64.4 °F 65% 30.08 in 10.0 mi SE 5.8 mph - N/A   Overcast
3:35 PM 77.0 °F 64.4 °F 65% 30.08 in 10.0 mi ESE 3.5 mph - N/A   Overcast
3:55 PM 77.0 °F 64.4 °F 65% 30.08 in 10.0 mi ESE 5.8 mph - N/A   Overcast
4:15 PM 77.0 °F 64.4 °F 65% 30.08 in 10.0 mi SSE 4.6 mph - N/A   Overcast
4:35 PM 77.0 °F 64.4 °F 65% 30.07 in 10.0 mi SSE 3.5 mph - N/A   Overcast
4:55 PM 77.0 °F 64.4 °F 65% 30.07 in 10.0 mi South 4.6 mph - N/A   Overcast
5:15 PM 77.0 °F 64.4 °F 65% 30.07 in 10.0 mi Calm Calm - N/A   Overcast
5:35 PM 77.0 °F 64.4 °F 65% 30.07 in 10.0 mi Calm Calm - N/A   Overcast
5:55 PM 77.0 °F 64.4 °F 65% 30.07 in 10.0 mi Calm Calm - N/A   Overcast
6:15 PM 68.0 °F 55.4 °F 64% 30.07 in 10.0 mi NW 13.8 mph - N/A   Overcast
6:35 PM 66.2 °F 55.4 °F 68% 30.08 in 10.0 mi NW 12.7 mph - N/A   Mostly Cloudy
6:55 PM 64.4 °F 55.4 °F 73% 30.09 in 10.0 mi WNW 8.1 mph - N/A   Overcast
7:15 PM 64.4 °F 55.4 °F 73% 30.10 in 10.0 mi WNW 12.7 mph - N/A   Overcast
7:35 PM 64.4 °F 55.4 °F 73% 30.10 in 10.0 mi NW 10.4 mph - N/A   Overcast
7:55 PM 64.4 °F 55.4 °F 73% 30.10 in 10.0 mi NW 12.7 mph - N/A   Overcast
8:15 PM 62.6 °F 55.4 °F 77% 30.11 in 10.0 mi NW 11.5 mph - N/A   Overcast
8:35 PM 62.6 °F 55.4 °F 77% 30.11 in 10.0 mi NW 8.1 mph - N/A   Overcast
8:55 PM 62.6 °F 55.4 °F 77% 30.11 in 10.0 mi NNW 9.2 mph - N/A   Mostly Cloudy
9:15 PM 62.6 °F 55.4 °F 77% 30.12 in 10.0 mi NNW 8.1 mph - N/A   Overcast
9:35 PM 62.6 °F 55.4 °F 77% 30.12 in 10.0 mi NNW 9.2 mph - N/A   Overcast
9:55 PM 62.6 °F 55.4 °F 77% 30.12 in 10.0 mi NNW 8.1 mph - N/A   Overcast
10:15 PM 62.6 °F 55.4 °F 77% 30.12 in 10.0 mi NNW 6.9 mph - N/A   Mostly Cloudy
10:35 PM 62.6 °F 55.4 °F 77% 30.12 in 10.0 mi NNW 6.9 mph - N/A   Overcast
10:55 PM 60.8 °F 55.4 °F 82% 30.11 in 10.0 mi NNW 5.8 mph - N/A   Overcast
11:15 PM 62.6 °F 55.4 °F 77% 30.11 in 10.0 mi North 6.9 mph - N/A   Overcast
11:35 PM 62.6 °F 55.4 °F 77% 30.11 in 10.0 mi North 5.8 mph - N/A   Overcast
11:55 PM 62.6 °F 55.4 °F 77% 30.11 in 10.0 mi NNW 5.8 mph - N/A   Overcast